 day,  time,  air_temp(C),  RH(%),  ground_temp10cm(C),  ground_temp20cm(C),  ground_temp40cm(C),  precipitation(mm/h),  Solar_Radiation(MJ/m2h),  lack, 
 09/09/01, 01:00,  15.2, -9999,  19.2,  19.9,  19.9,   0.0,  0.00, 
 09/09/01, 02:00,  15.0, -9999,  19.1,  20.0,  19.9,   0.0,  0.00, 
 09/09/01, 03:00,  15.0, -9999,  19.1,  19.8,  19.9,   0.0,  0.00, 
 09/09/01, 04:00,  14.8, -9999,  19.0,  19.8,  19.9,   0.5,  0.00, 
 09/09/01, 05:00,  14.7, -9999,  18.9,  19.8,  19.9,   0.0,  0.00, 
 09/09/01, 06:00,  14.6, -9999,  18.7,  19.7,  19.9,   0.0,  0.00, 
 09/09/01, 07:00,  14.6, -9999,  18.7,  19.7,  20.0,   0.0,  0.13, 
 09/09/01, 08:00,  14.7, -9999,  18.7,  19.7,  19.9,   0.0,  0.20, 
 09/09/01, 09:00,  14.6, -9999,  18.7,  19.6,  19.9,   0.5,  0.33, 
 09/09/01, 10:00,  15.1, -9999,  18.7,  19.5,  19.8,   0.5,  0.52, 
 09/09/01, 11:00,  15.0, -9999,  18.9,  19.6,  19.8,   0.0,  0.59, 
 09/09/01, 12:00,  15.5, -9999,  19.0,  19.4,  19.8,   0.0,  0.55, 
 09/09/01, 13:00,  15.6, -9999,  19.2,  19.5,  19.8,   0.0,  0.66, 
 09/09/01, 14:00,  16.0, -9999,  19.3,  19.5,  19.8,   0.5,  0.76, 
 09/09/01, 15:00,  16.0, -9999,  19.5,  19.4,  19.8,   0.0,  0.67, 
 09/09/01, 16:00,  16.0, -9999,  19.7,  19.6,  19.8,   0.0,  0.50, 
 09/09/01, 17:00,  16.0, -9999,  19.7,  19.6,  19.7,   0.0,  0.25, 
 09/09/01, 18:00,  15.9, -9999,  19.7,  19.6,  19.7,   0.0,  0.07, 
 09/09/01, 19:00,  15.5, -9999,  19.6,  19.5,  19.7,   0.0,  0.00, 
 09/09/01, 20:00,  15.4, -9999,  19.5,  19.7,  19.7,   0.0,  0.00, 
 09/09/01, 21:00,  15.3, -9999,  19.3,  19.7,  19.7,   0.0,  0.00, 
 09/09/01, 22:00,  14.8, -9999,  19.2,  19.6,  19.7,   0.0,  0.00, 
 09/09/01, 23:00,  14.2, -9999,  19.0,  19.7,  19.7,   0.0,  0.00, 
 09/09/02, 00:00,  15.4, -9999,  18.9,  19.6,  19.7,   0.0,  0.00, 
 09/09/02, 01:00,  15.8, -9999,  18.7,  19.6,  19.7,   0.0,  0.00, 
 09/09/02, 02:00,  15.9, -9999,  18.6,  19.4,  19.7,   0.0,  0.00, 
 09/09/02, 03:00,  16.2, -9999,  18.4,  19.5,  19.6,   0.0,  0.00, 
 09/09/02, 04:00,  14.9, -9999,  18.3,  19.3,  19.6,   0.0,  0.00, 
 09/09/02, 05:00,  14.5, -9999,  18.1,  19.3,  19.6,   0.0,  0.00, 
 09/09/02, 06:00,  14.6, -9999,  18.0,  19.2,  19.6,   0.0,  0.00, 
 09/09/02, 07:00,  15.8, -9999,  17.9,  19.1,  19.6,   0.0,  0.09, 
 09/09/02, 08:00,  16.4, -9999,  18.0,  19.1,  19.6,   0.0,  0.30, 
 09/09/02, 09:00,  17.3, -9999,  18.2,  19.0,  19.6,   0.0,  0.78, 
 09/09/02, 10:00,  17.9, -9999,  18.5,  19.0,  19.6,   0.0,  0.77, 
 09/09/02, 11:00,  19.0, -9999,  18.8,  19.0,  19.6,   0.0,  1.08, 
 09/09/02, 12:00,  20.1, -9999,  19.3,  19.0,  19.6,   0.0,  1.94, 
 09/09/02, 13:00,  20.2, -9999,  19.9,  19.0,  19.5,   0.0,  1.10, 
 09/09/02, 14:00,  20.8, -9999,  20.3,  19.1,  19.5,   0.0,  1.51, 
 09/09/02, 15:00,  20.6, -9999,  20.6,  19.2,  19.6,   0.0,  0.72, 
 09/09/02, 16:00,  20.3, -9999,  20.7,  19.4,  19.6,   0.0,  0.69, 
 09/09/02, 17:00,  19.9, -9999,  20.7,  19.5,  19.5,   0.0,  0.40, 
 09/09/02, 18:00,  18.9, -9999,  20.7,  19.6,  19.6,   0.0,  0.04, 
 09/09/02, 19:00,  18.3, -9999,  20.6,  19.7,  19.6,   0.0,  0.00, 
 09/09/02, 20:00,  18.1, -9999,  20.4,  19.8,  19.6,   0.0,  0.00, 
 09/09/02, 21:00,  17.6, -9999,  20.2,  19.7,  19.4,   0.0,  0.00, 
 09/09/02, 22:00,  17.7, -9999,  20.1,  19.8,  19.4,   0.0,  0.00, 
 09/09/02, 23:00,  17.6, -9999,  20.0,  19.9,  19.5,   0.0,  0.00, 
 09/09/03, 00:00,  17.5, -9999,  19.8,  19.8,  19.4,   0.0,  0.00, 
 09/09/03, 01:00,  17.3, -9999,  19.7,  19.8,  19.4,   0.0,  0.00, 
 09/09/03, 02:00,  17.2, -9999,  19.7,  19.7,  19.4,   0.0,  0.00, 
 09/09/03, 03:00,  17.1, -9999,  19.7,  19.7,  19.5,   0.0,  0.00, 
 09/09/03, 04:00,  17.1, -9999,  19.6,  19.7,  19.5,   0.0,  0.00, 
 09/09/03, 05:00,  17.1, -9999,  19.4,  19.7,  19.5,   0.0,  0.00, 
 09/09/03, 06:00,  17.1, -9999,  19.5,  19.7,  19.5,   0.0,  0.00, 
 09/09/03, 07:00,  17.1, -9999,  19.3,  19.7,  19.5,   0.0,  0.06, 
 09/09/03, 08:00,  17.6, -9999,  19.3,  19.7,  19.6,   0.0,  0.40, 
 09/09/03, 09:00,  17.6, -9999,  19.4,  19.7,  19.5,   0.5,  0.28, 
 09/09/03, 10:00,  18.3, -9999,  19.7,  19.6,  19.5,   0.0,  0.82, 
 09/09/03, 11:00,  18.3, -9999,  19.8,  19.6,  19.5,   0.0,  0.85, 
 09/09/03, 12:00,  17.9, -9999,  20.1,  19.6,  19.5,   2.0,  0.21, 
 09/09/03, 13:00,  19.1, -9999,  20.0,  19.7,  19.6,   0.0,  0.72, 
 09/09/03, 14:00,  19.2, -9999,  20.3,  19.7,  19.5,   0.0,  1.14, 
 09/09/03, 15:00,  19.6, -9999,  20.5,  19.7,  19.5,   0.0,  0.80, 
 09/09/03, 16:00,  20.2, -9999,  20.8,  19.8,  19.6,   0.0,  0.90, 
 09/09/03, 17:00,  18.6, -9999,  20.8,  19.9,  19.6,   0.0,  0.26, 
 09/09/03, 18:00,  17.9, -9999,  20.8,  19.9,  19.6,   0.5,  0.05, 
 09/09/03, 19:00,  17.7, -9999,  20.6,  20.0,  19.6,   0.0,  0.00, 
 09/09/03, 20:00,  17.4, -9999,  20.5,  20.0,  19.5,   0.0,  0.00, 
 09/09/03, 21:00,  17.1, -9999,  20.3,  20.0,  19.6,   0.0,  0.00, 
 09/09/03, 22:00,  16.7, -9999,  20.2,  20.1,  19.6,   0.0,  0.00, 
 09/09/03, 23:00,  16.8, -9999,  20.1,  20.0,  19.6,   0.0,  0.00, 
 09/09/04, 00:00,  16.6, -9999,  19.8,  20.0,  19.6,   0.0,  0.00, 
 09/09/04, 01:00,  16.6, -9999,  19.7,  19.9,  19.5,   0.0,  0.00, 
 09/09/04, 02:00,  16.7, -9999,  19.7,  20.0,  19.5,   0.0,  0.00, 
 09/09/04, 03:00,  16.2, -9999,  19.5,  19.8,  19.5,   0.0,  0.00, 
 09/09/04, 04:00,  15.9, -9999,  19.4,  19.8,  19.5,   0.0,  0.00, 
 09/09/04, 05:00,  16.4, -9999,  19.3,  19.7,  19.5,   0.0,  0.00, 
 09/09/04, 06:00,  16.4, -9999,  19.2,  19.7,  19.5,   0.0,  0.00, 
 09/09/04, 07:00,  16.5, -9999,  19.2,  19.7,  19.5,   0.0,  0.03, 
 09/09/04, 08:00,  16.9, -9999,  19.1,  19.7,  19.5,   0.0,  0.40, 
 09/09/04, 09:00,  16.9, -9999,  19.4,  19.7,  19.6,   0.0,  0.59, 
 09/09/04, 10:00,  17.6, -9999,  19.4,  19.6,  19.5,   0.0,  0.99, 
 09/09/04, 11:00,  17.7, -9999,  19.7,  19.6,  19.6,   0.0,  0.71, 
 09/09/04, 12:00,  18.9, -9999,  19.9,  19.6,  19.5,   0.0,  1.32, 
 09/09/04, 13:00,  22.0, -9999,  20.4,  19.7,  19.5,   0.0,  2.10, 
 09/09/04, 14:00,  20.2, -9999,  21.0,  19.7,  19.6,   0.0,  1.59, 
 09/09/04, 15:00,  18.8, -9999,  21.2,  19.8,  19.6,   0.0,  0.32, 
 09/09/04, 16:00,  17.8, -9999,  21.2,  19.8,  19.5,   1.5,  0.10, 
 09/09/04, 17:00,  17.2, -9999,  20.9,  20.0,  19.6,   1.0,  0.08, 
 09/09/04, 18:00,  16.9, -9999,  20.8,  20.1,  19.6,   0.0,  0.02, 
 09/09/04, 19:00,  16.3, -9999,  20.5,  20.1,  19.5,   0.0,  0.00, 
 09/09/04, 20:00,  16.1, -9999,  20.3,  20.1,  19.6,   0.0,  0.00, 
 09/09/04, 21:00,  15.5, -9999,  20.1,  20.1,  19.6,   0.0,  0.00, 
 09/09/04, 22:00,  14.4, -9999,  19.9,  20.1,  19.5,   0.0,  0.00, 
 09/09/04, 23:00,  14.0, -9999,  19.6,  20.0,  19.6,   0.0,  0.00, 
 09/09/05, 00:00,  13.9, -9999,  19.5,  20.0,  19.6,   0.0,  0.00, 
 09/09/05, 01:00,  14.6, -9999,  19.2,  20.0,  19.6,   0.0,  0.00, 
 09/09/05, 02:00,  14.5, -9999,  19.0,  19.8,  19.5,   0.0,  0.00, 
 09/09/05, 03:00,  14.2, -9999,  18.9,  19.7,  19.5,   0.0,  0.00, 
 09/09/05, 04:00,  14.8, -9999,  18.7,  19.7,  19.5,   0.0,  0.00, 
 09/09/05, 05:00,  13.5, -9999,  18.5,  19.7,  19.5,   0.0,  0.00, 
 09/09/05, 06:00,  14.9, -9999,  18.3,  19.6,  19.6,   0.0,  0.00, 
 09/09/05, 07:00,  16.2, -9999,  18.2,  19.5,  19.6,   0.0,  0.36, 
 09/09/05, 08:00,  17.7, -9999,  18.1,  19.4,  19.6,   0.0,  1.17, 
 09/09/05, 09:00,  16.9, -9999,  18.1,  19.4,  19.5,   0.0,  1.92, 
 09/09/05, 10:00,  19.0, -9999,  18.3,  19.2,  19.6,   0.0,  2.53, 
 09/09/05, 11:00,  20.3, -9999,  19.4,  19.1,  19.6,   0.0,  2.96, 
 09/09/05, 12:00,  21.6, -9999,  20.9,  19.1,  19.6,   0.0,  3.29, 
 09/09/05, 13:00,  22.7, -9999,  22.2,  19.2,  19.6,   0.0,  3.33, 
 09/09/05, 14:00,  22.4, -9999,  23.1,  19.5,  19.5,   0.0,  3.24, 
 09/09/05, 15:00,  21.8, -9999,  23.0,  19.8,  19.5,   0.0,  2.45, 
 09/09/05, 16:00,  20.2, -9999,  22.8,  20.0,  19.5,   0.0,  1.96, 
 09/09/05, 17:00,  19.0, -9999,  22.3,  20.3,  19.5,   0.0,  1.16, 
 09/09/05, 18:00,  17.1, -9999,  21.9,  20.4,  19.5,   0.0,  0.22, 
 09/09/05, 19:00,  16.0, -9999,  21.7,  20.4,  19.5,   0.0,  0.00, 
 09/09/05, 20:00,  15.9, -9999,  21.3,  20.5,  19.5,   0.0,  0.00, 
 09/09/05, 21:00,  14.8, -9999,  20.9,  20.5,  19.5,   0.0,  0.00, 
 09/09/05, 22:00,  14.4, -9999,  20.6,  20.6,  19.4,   0.0,  0.00, 
 09/09/05, 23:00,  14.3, -9999,  20.2,  20.5,  19.4,   0.0,  0.00, 
 09/09/06, 00:00,  14.1, -9999,  19.9,  20.5,  19.4,   0.0,  0.00, 
 09/09/06, 01:00,  13.8, -9999,  19.7,  20.3,  19.5,   0.0,  0.00, 
 09/09/06, 02:00,  13.8, -9999,  19.3,  20.2,  19.6,   0.0,  0.00, 
 09/09/06, 03:00,  13.5, -9999,  19.1,  20.1,  19.5,   0.0,  0.00, 
 09/09/06, 04:00,  13.6, -9999,  18.8,  20.0,  19.5,   0.0,  0.00, 
 09/09/06, 05:00,  13.6, -9999,  18.6,  20.0,  19.5,   0.0,  0.00, 
 09/09/06, 06:00,  13.3, -9999,  18.4,  19.9,  19.5,   0.0,  0.00, 
 09/09/06, 07:00,  15.0, -9999,  18.2,  19.7,  19.5,   0.0,  0.37, 
 09/09/06, 08:00,  15.4, -9999,  18.2,  19.7,  19.6,   0.0,  1.17, 
 09/09/06, 09:00,  16.5, -9999,  18.2,  19.6,  19.6,   0.0,  1.96, 
 09/09/06, 10:00,  19.0, -9999,  18.3,  19.5,  19.6,   0.0,  2.62, 
 09/09/06, 11:00,  20.2, -9999,  19.4,  19.4,  19.6,   0.0,  2.91, 
 09/09/06, 12:00,  21.3, -9999,  20.8,  19.4,  19.5,   0.0,  3.35, 
 09/09/06, 13:00,  22.1, -9999,  22.2,  19.5,  19.6,   0.0,  3.33, 
 09/09/06, 14:00,  22.3, -9999,  22.9,  19.6,  19.6,   0.0,  3.11, 
 09/09/06, 15:00,  22.1, -9999,  22.9,  19.9,  19.6,   0.0,  2.34, 
 09/09/06, 16:00,  21.1, -9999,  22.8,  20.1,  19.6,   0.0,  1.32, 
 09/09/06, 17:00,  20.1, -9999,  22.6,  20.3,  19.6,   0.0,  1.03, 
 09/09/06, 18:00,  18.1, -9999,  22.2,  20.5,  19.4,   0.0,  0.44, 
 09/09/06, 19:00,  16.2, -9999,  21.8,  20.6,  19.6,   0.0,  0.01, 
 09/09/06, 20:00,  15.4, -9999,  21.5,  20.7,  19.5,   0.0,  0.00, 
 09/09/06, 21:00,  15.4, -9999,  21.0,  20.7,  19.6,   0.0,  0.00, 
 09/09/06, 22:00,  15.0, -9999,  20.8,  20.6,  19.6,   0.0,  0.00, 
 09/09/06, 23:00,  14.7, -9999,  20.5,  20.6,  19.5,   0.0,  0.00, 
 09/09/07, 00:00,  13.9, -9999,  20.1,  20.5,  19.6,   0.0,  0.00, 
 09/09/07, 01:00,  13.5, -9999,  19.8,  20.5,  19.6,   0.0,  0.00, 
 09/09/07, 02:00,  13.5, -9999,  19.6,  20.3,  19.6,   0.0,  0.00, 
 09/09/07, 03:00,  14.6, -9999,  19.2,  20.3,  19.6,   0.0,  0.00, 
 09/09/07, 04:00,  13.3, -9999,  19.0,  20.1,  19.6,   0.0,  0.00, 
 09/09/07, 05:00,  13.0, -9999,  18.7,  20.1,  19.6,   0.0,  0.00, 
 09/09/07, 06:00,  13.2, -9999,  18.5,  20.0,  19.6,   0.0,  0.00, 
 09/09/07, 07:00,  14.6, -9999,  18.3,  19.8,  19.6,   0.0,  0.35, 
 09/09/07, 08:00,  15.4, -9999,  18.2,  19.7,  19.7,   0.0,  1.17, 
 09/09/07, 09:00,  16.4, -9999,  18.3,  19.7,  19.7,   0.0,  1.88, 
 09/09/07, 10:00,  17.0, -9999,  18.4,  19.6,  19.7,   0.0,  1.92, 
 09/09/07, 11:00,  19.3, -9999,  19.0,  19.5,  19.7,   0.0,  2.65, 
 09/09/07, 12:00,  21.3, -9999,  20.4,  19.5,  19.6,   0.0,  3.17, 
 09/09/07, 13:00,  21.9, -9999,  21.8,  19.5,  19.6,   0.0,  3.07, 
 09/09/07, 14:00,  22.4, -9999,  22.6,  19.6,  19.6,   0.0,  2.89, 
 09/09/07, 15:00,  22.8, -9999,  22.5,  19.9,  19.6,   0.0,  2.49, 
 09/09/07, 16:00,  21.4, -9999,  22.1,  20.1,  19.6,   0.0,  1.83, 
 09/09/07, 17:00,  20.4, -9999,  21.8,  20.3,  19.6,   0.0,  1.11, 
 09/09/07, 18:00,  19.0, -9999,  21.6,  20.4,  19.6,   0.0,  0.22, 
 09/09/07, 19:00,  17.3, -9999,  21.4,  20.5,  19.6,   0.0,  0.00, 
 09/09/07, 20:00,  17.6, -9999,  21.1,  20.5,  19.6,   0.0,  0.00, 
 09/09/07, 21:00,  18.0, -9999,  20.9,  20.5,  19.6,   0.0,  0.00, 
 09/09/07, 22:00,  17.5, -9999,  20.7,  20.4,  19.5,   0.0,  0.00, 
 09/09/07, 23:00,  16.6, -9999,  20.5,  20.5,  19.6,   0.0,  0.00, 
 09/09/08, 00:00,  16.0, -9999,  20.3,  20.4,  19.6,   0.0,  0.00, 
 09/09/08, 01:00,  16.6, -9999,  20.0,  20.3,  19.6,   0.0,  0.00, 
 09/09/08, 02:00,  14.7, -9999,  19.7,  20.3,  19.5,   0.0,  0.00, 
 09/09/08, 03:00,  14.9, -9999,  19.5,  20.2,  19.6,   0.0,  0.00, 
 09/09/08, 04:00,  13.8, -9999,  19.1,  20.1,  19.6,   0.0,  0.00, 
 09/09/08, 05:00,  11.6, -9999,  18.9,  20.1,  19.5,   0.0,  0.00, 
 09/09/08, 06:00,  13.8, -9999,  18.7,  20.0,  19.6,   0.0,  0.00, 
 09/09/08, 07:00,  14.3, -9999,  18.4,  19.9,  19.6,   0.0,  0.34, 
 09/09/08, 08:00,  16.1, -9999,  18.3,  19.8,  19.6,   0.0,  1.11, 
 09/09/08, 09:00,  17.0, -9999,  18.3,  19.7,  19.6,   0.0,  1.87, 
 09/09/08, 10:00,  18.9, -9999,  18.4,  19.6,  19.6,   0.0,  2.47, 
 09/09/08, 11:00,  18.5, -9999,  19.4,  19.5,  19.6,   0.0,  2.16, 
 09/09/08, 12:00,  17.6, -9999,  20.1,  19.5,  19.6,   0.0,  1.10, 
 09/09/08, 13:00,  18.2, -9999,  20.3,  19.5,  19.6,   0.0,  0.83, 
 09/09/08, 14:00,  17.9, -9999,  20.4,  19.6,  19.6,   0.0,  0.94, 
 09/09/08, 15:00,  17.2, -9999,  20.7,  19.7,  19.6,   0.0,  0.72, 
 09/09/08, 16:00,  15.9, -9999,  20.7,  19.7,  19.6,   0.0,  0.26, 
 09/09/08, 17:00,  15.1, -9999,  20.4,  19.7,  19.6,   0.0,  0.12, 
 09/09/08, 18:00,  14.5, -9999,  20.2,  19.8,  19.6,   0.0,  0.00, 
 09/09/08, 19:00,  14.0, -9999,  20.1,  19.9,  19.6,   0.0,  0.00, 
 09/09/08, 20:00,  13.5, -9999,  19.7,  19.9,  19.6,   0.0,  0.00, 
 09/09/08, 21:00,  13.0, -9999,  19.6,  19.9,  19.5,   0.0,  0.00, 
 09/09/08, 22:00,  12.7, -9999,  19.4,  19.9,  19.5,   0.0,  0.00, 
 09/09/08, 23:00,  12.7, -9999,  19.1,  19.7,  19.5,   0.0,  0.00, 
 09/09/09, 00:00,  12.1, -9999,  18.9,  19.8,  19.6,   0.0,  0.00, 
 09/09/09, 01:00,  12.1, -9999,  18.7,  19.7,  19.6,   0.0,  0.00, 
 09/09/09, 02:00,  12.3, -9999,  18.5,  19.7,  19.6,   0.0,  0.00, 
 09/09/09, 03:00,  12.1, -9999,  18.3,  19.6,  19.5,   0.0,  0.00, 
 09/09/09, 04:00,  12.0, -9999,  18.2,  19.4,  19.4,   0.0,  0.00, 
 09/09/09, 05:00,  11.8, -9999,  18.1,  19.3,  19.4,   0.0,  0.00, 
 09/09/09, 06:00,  11.4, -9999,  17.9,  19.2,  19.4,   0.0,  0.00, 
 09/09/09, 07:00,  11.0, -9999,  17.8,  19.2,  19.4,   0.0,  0.01, 
 09/09/09, 08:00,  11.2, -9999,  17.7,  19.1,  19.4,   0.0,  0.20, 
 09/09/09, 09:00,  12.2, -9999,  17.7,  19.0,  19.4,   0.0,  0.79, 
 09/09/09, 10:00,  14.2, -9999,  17.9,  18.9,  19.4,   0.0,  1.39, 
 09/09/09, 11:00,  15.4, -9999,  18.3,  18.9,  19.4,   0.0,  2.19, 
 09/09/09, 12:00,  16.2, -9999,  19.1,  18.9,  19.4,   0.0,  2.01, 
 09/09/09, 13:00,  15.0, -9999,  19.7,  18.9,  19.5,   0.0,  1.53, 
 09/09/09, 14:00,  15.6, -9999,  20.0,  18.9,  19.3,   0.0,  1.93, 
 09/09/09, 15:00,  14.7, -9999,  20.1,  19.0,  19.3,   0.0,  1.67, 
 09/09/09, 16:00,  14.0, -9999,  20.1,  19.1,  19.3,   0.0,  1.29, 
 09/09/09, 17:00,  13.2, -9999,  20.0,  19.2,  19.3,   0.0,  0.83, 
 09/09/09, 18:00,  12.2, -9999,  19.8,  19.3,  19.3,   0.0,  0.45, 
 09/09/09, 19:00,  10.7, -9999,  19.6,  19.4,  19.3,   0.0,  0.00, 
 09/09/09, 20:00,  10.3, -9999,  19.1,  19.5,  19.3,   0.0,  0.00, 
 09/09/09, 21:00,   9.0, -9999,  18.7,  19.4,  19.3,   0.0,  0.00, 
 09/09/09, 22:00,   9.0, -9999,  18.2,  19.3,  19.2,   0.0,  0.00, 
 09/09/09, 23:00,   9.1, -9999,  17.9,  19.2,  19.2,   0.0,  0.00, 
 09/09/10, 00:00,   8.4, -9999,  17.6,  19.1,  19.1,   0.0,  0.00, 
 09/09/10, 01:00,   7.5, -9999,  17.3,  19.0,  19.2,   0.0,  0.00, 
 09/09/10, 02:00,   7.7, -9999,  17.0,  18.9,  19.2,   0.0,  0.00, 
 09/09/10, 03:00,   6.6, -9999,  16.7,  18.8,  19.2,   0.0,  0.00, 
 09/09/10, 04:00,   7.0, -9999,  16.4,  18.7,  19.2,   0.0,  0.00, 
 09/09/10, 05:00,   6.9, -9999,  16.1,  18.5,  19.1,   0.0,  0.00, 
 09/09/10, 06:00,   7.8, -9999,  15.9,  18.4,  19.2,   0.0,  0.00, 
 09/09/10, 07:00,   8.6, -9999,  15.7,  18.3,  19.2,   0.0,  0.17, 
 09/09/10, 08:00,  10.6, -9999,  15.5,  18.1,  19.2,   0.0,  0.87, 
 09/09/10, 09:00,  12.1, -9999,  15.6,  18.0,  19.2,   0.0,  1.79, 
 09/09/10, 10:00,  13.8, -9999,  15.8,  17.9,  19.1,   0.0,  2.52, 
 09/09/10, 11:00,  14.3, -9999,  16.7,  17.8,  19.0,   0.0,  2.39, 
 09/09/10, 12:00,  15.4, -9999,  17.5,  17.7,  19.1,   0.0,  1.77, 
 09/09/10, 13:00,  14.8, -9999,  18.2,  17.8,  19.1,   0.0,  1.85, 
 09/09/10, 14:00,  16.1, -9999,  18.5,  17.8,  19.0,   0.0,  2.53, 
 09/09/10, 15:00,  15.0, -9999,  18.6,  17.9,  19.0,   0.0,  2.06, 
 09/09/10, 16:00,  14.7, -9999,  18.5,  18.1,  19.0,   0.0,  1.79, 
 09/09/10, 17:00,  13.2, -9999,  18.2,  18.2,  18.9,   0.0,  1.12, 
 09/09/10, 18:00,  11.8, -9999,  17.9,  18.2,  18.9,   0.0,  0.26, 
 09/09/10, 19:00,  10.7, -9999,  17.6,  18.3,  18.9,   0.0,  0.00, 
 09/09/10, 20:00,   9.7, -9999,  17.3,  18.3,  18.9,   0.0,  0.00, 
 09/09/10, 21:00,  10.1, -9999,  17.0,  18.2,  18.9,   0.0,  0.00, 
 09/09/10, 22:00,   8.3, -9999,  16.7,  18.2,  18.8,   0.0,  0.00, 
 09/09/10, 23:00,   7.8, -9999,  16.4,  18.1,  18.8,   0.0,  0.00, 
 09/09/11, 00:00,   7.9, -9999,  16.2,  18.0,  18.8,   0.0,  0.00, 
 09/09/11, 01:00,   7.3, -9999,  15.9,  17.9,  18.8,   0.0,  0.00, 
 09/09/11, 02:00,  10.2, -9999,  15.7,  17.8,  18.8,   0.0,  0.00, 
 09/09/11, 03:00,  10.0, -9999,  15.5,  17.7,  18.7,   0.0,  0.00, 
 09/09/11, 04:00,  10.4, -9999,  15.4,  17.6,  18.8,   0.0,  0.00, 
 09/09/11, 05:00,  10.7, -9999,  15.3,  17.5,  18.8,   0.0,  0.00, 
 09/09/11, 06:00,   8.6, -9999,  15.2,  17.4,  18.7,   0.0,  0.00, 
 09/09/11, 07:00,  11.8, -9999,  15.1,  17.3,  18.7,   0.0,  0.12, 
 09/09/11, 08:00,  12.9, -9999,  15.1,  17.2,  18.7,   0.0,  0.64, 
 09/09/11, 09:00,  14.3, -9999,  15.3,  17.1,  18.7,   0.0,  1.78, 
 09/09/11, 10:00,  15.6, -9999,  15.5,  17.1,  18.6,   0.0,  2.08, 
 09/09/11, 11:00,  16.4, -9999,  16.2,  17.0,  18.6,   0.0,  2.00, 
 09/09/11, 12:00,  17.4, -9999,  17.4,  17.0,  18.6,   0.0,  3.01, 
 09/09/11, 13:00,  17.8, -9999,  18.7,  17.1,  18.6,   0.0,  2.76, 
 09/09/11, 14:00,  17.7, -9999,  19.6,  17.2,  18.6,   0.0,  1.73, 
 09/09/11, 15:00,  18.5, -9999,  19.6,  17.4,  18.5,   0.0,  1.90, 
 09/09/11, 16:00,  17.4, -9999,  19.5,  17.7,  18.5,   0.0,  1.90, 
 09/09/11, 17:00,  15.9, -9999,  19.2,  17.8,  18.5,   0.0,  0.66, 
 09/09/11, 18:00,  14.4, -9999,  19.0,  18.0,  18.5,   0.0,  0.16, 
 09/09/11, 19:00,  12.6, -9999,  18.7,  18.1,  18.4,   0.0,  0.00, 
 09/09/11, 20:00,  13.9, -9999,  18.3,  18.1,  18.4,   0.0,  0.00, 
 09/09/11, 21:00,  13.6, -9999,  18.0,  18.2,  18.4,   0.0,  0.00, 
 09/09/11, 22:00,  13.5, -9999,  17.8,  18.2,  18.4,   0.0,  0.00, 
 09/09/11, 23:00,  13.4, -9999,  17.6,  18.2,  18.4,   0.0,  0.00, 
 09/09/12, 00:00,  13.6, -9999,  17.4,  18.1,  18.4,   0.0,  0.00, 
 09/09/12, 01:00,  12.6, -9999,  17.2,  18.1,  18.4,   0.0,  0.00, 
 09/09/12, 02:00,  13.4, -9999,  17.0,  18.0,  18.4,   0.0,  0.00, 
 09/09/12, 03:00,  11.7, -9999,  16.9,  18.0,  18.4,   0.0,  0.00, 
 09/09/12, 04:00,  13.7, -9999,  16.7,  17.9,  18.4,   0.0,  0.00, 
 09/09/12, 05:00,  13.3, -9999,  16.6,  17.8,  18.4,   0.0,  0.00, 
 09/09/12, 06:00,  12.5, -9999,  16.5,  17.8,  18.4,   0.0,  0.00, 
 09/09/12, 07:00,  10.6, -9999,  16.3,  17.7,  18.4,   7.5,  0.00, 
 09/09/12, 08:00,  10.6, -9999,  15.9,  17.6,  18.4,   5.5,  0.02, 
 09/09/12, 09:00,  12.4, -9999,  15.7,  17.5,  18.4,   2.0,  0.19, 
 09/09/12, 10:00,  13.2, -9999,  15.8,  17.4,  18.4,   1.0,  0.36, 
 09/09/12, 11:00,  13.6, -9999,  15.9,  17.4,  18.4,   0.5,  0.25, 
 09/09/12, 12:00,  13.5, -9999,  16.0,  17.3,  18.3,   2.0,  0.29, 
 09/09/12, 13:00,  13.7, -9999,  16.0,  17.2,  18.3,   2.5,  0.25, 
 09/09/12, 14:00,  14.2, -9999,  16.1,  17.1,  18.3,   2.0,  0.29, 
 09/09/12, 15:00,  13.9, -9999,  16.1,  17.1,  18.3,   1.0,  0.20, 
 09/09/12, 16:00,  13.3, -9999,  16.1,  17.1,  18.2,   0.5,  0.10, 
 09/09/12, 17:00,  13.2, -9999,  16.1,  17.0,  18.2,   1.5,  0.00, 
 09/09/12, 18:00,  12.5, -9999,  16.0,  17.0,  18.2,   2.0,  0.00, 
 09/09/12, 19:00,  12.5, -9999,  15.9,  16.9,  18.1,   2.0,  0.00, 
 09/09/12, 20:00,  12.1, -9999,  15.7,  16.9,  18.1,   1.5,  0.00, 
 09/09/12, 21:00,  12.2, -9999,  15.6,  16.9,  18.1,   0.0,  0.00, 
 09/09/12, 22:00,  12.4, -9999,  15.6,  16.8,  18.0,   0.0,  0.00, 
 09/09/12, 23:00,  11.9, -9999,  15.6,  16.8,  18.0,   0.0,  0.00, 
 09/09/13, 00:00,  12.0, -9999,  15.5,  16.7,  18.0,   0.0,  0.00, 
 09/09/13, 01:00,  12.0, -9999,  15.4,  16.7,  18.0,   0.0,  0.00, 
 09/09/13, 02:00,  11.7, -9999,  15.4,  16.6,  17.9,   0.0,  0.00, 
 09/09/13, 03:00,  11.2, -9999,  15.3,  16.6,  17.8,   1.5,  0.00, 
 09/09/13, 04:00,  10.0, -9999,  15.3,  16.5,  17.9,   0.0,  0.00, 
 09/09/13, 05:00,   9.6, -9999,  15.1,  16.5,  17.9,   0.0,  0.00, 
 09/09/13, 06:00,   9.9, -9999,  15.0,  16.5,  17.7,   0.0,  0.00, 
 09/09/13, 07:00,  10.6, -9999,  14.9,  16.4,  17.8,   0.5,  0.04, 
 09/09/13, 08:00,  12.5, -9999,  14.9,  16.4,  17.8,   0.0,  1.01, 
 09/09/13, 09:00,  13.8, -9999,  15.0,  16.3,  17.7,   0.0,  1.50, 
 09/09/13, 10:00,  13.6, -9999,  15.2,  16.3,  17.8,   0.0,  1.41, 
 09/09/13, 11:00,  13.1, -9999,  15.5,  16.2,  17.7,   0.0,  1.02, 
 09/09/13, 12:00,  14.7, -9999,  16.0,  16.2,  17.7,   0.0,  1.91, 
 09/09/13, 13:00,  14.4, -9999,  16.6,  16.3,  17.7,   0.0,  1.35, 
 09/09/13, 14:00,  15.3, -9999,  17.1,  16.4,  17.7,   0.0,  1.58, 
 09/09/13, 15:00,  14.8, -9999,  17.3,  16.5,  17.7,   0.0,  1.38, 
 09/09/13, 16:00,  14.5, -9999,  17.4,  16.5,  17.6,   0.0,  1.36, 
 09/09/13, 17:00,  13.8, -9999,  17.3,  16.7,  17.6,   0.0,  1.18, 
 09/09/13, 18:00,  12.3, -9999,  17.1,  16.7,  17.6,   0.0,  0.38, 
 09/09/13, 19:00,  12.0, -9999,  16.8,  16.8,  17.6,   0.0,  0.00, 
 09/09/13, 20:00,   9.4, -9999,  16.5,  16.9,  17.6,   0.0,  0.00, 
 09/09/13, 21:00,   9.0, -9999,  16.2,  16.9,  17.6,   0.0,  0.00, 
 09/09/13, 22:00,   8.5, -9999,  15.9,  16.8,  17.6,   0.0,  0.00, 
 09/09/13, 23:00,   9.3, -9999,  15.6,  16.8,  17.6,   0.0,  0.00, 
 09/09/14, 00:00,   8.2, -9999,  15.3,  16.7,  17.6,   0.0,  0.00, 
 09/09/14, 01:00,   8.3, -9999,  15.1,  16.7,  17.5,   0.0,  0.00, 
 09/09/14, 02:00,   9.8, -9999,  14.8,  16.6,  17.5,   0.0,  0.00, 
 09/09/14, 03:00,   7.2, -9999,  14.6,  16.5,  17.5,   0.0,  0.00, 
 09/09/14, 04:00,   7.0, -9999,  14.4,  16.4,  17.5,   0.0,  0.00, 
 09/09/14, 05:00,   6.2, -9999,  14.2,  16.3,  17.5,   0.0,  0.00, 
 09/09/14, 06:00,   6.7, -9999,  14.0,  16.2,  17.5,   0.0,  0.00, 
 09/09/14, 07:00,   8.4, -9999,  13.8,  16.1,  17.5,   0.0,  0.34, 
 09/09/14, 08:00,  11.5, -9999,  13.7,  16.0,  17.5,   0.0,  1.13, 
 09/09/14, 09:00,  12.7, -9999,  13.8,  15.9,  17.5,   0.0,  1.89, 
 09/09/14, 10:00,  14.9, -9999,  14.0,  15.8,  17.5,   0.0,  2.48, 
 09/09/14, 11:00,  17.0, -9999,  15.1,  15.8,  17.6,   0.0,  2.98, 
 09/09/14, 12:00,  16.7, -9999,  16.6,  15.7,  17.4,   0.0,  3.15, 
 09/09/14, 13:00,  18.6, -9999,  18.2,  15.8,  17.5,   0.0,  3.21, 
 09/09/14, 14:00,  18.4, -9999,  19.1,  16.0,  17.4,   0.0,  2.79, 
 09/09/14, 15:00,  17.6, -9999,  19.2,  16.3,  17.4,   0.0,  1.71, 
 09/09/14, 16:00,  17.1, -9999,  19.0,  16.6,  17.4,   0.0,  1.17, 
 09/09/14, 17:00,  14.9, -9999,  18.9,  16.8,  17.3,   0.0,  0.68, 
 09/09/14, 18:00,  12.8, -9999,  18.6,  17.0,  17.3,   0.0,  0.16, 
 09/09/14, 19:00,  12.5, -9999,  18.3,  17.2,  17.3,   0.0,  0.00, 
 09/09/14, 20:00,  11.4, -9999,  17.9,  17.2,  17.3,   0.0,  0.00, 
 09/09/14, 21:00,  10.8, -9999,  17.5,  17.3,  17.3,   0.0,  0.00, 
 09/09/14, 22:00,  12.3, -9999,  17.1,  17.3,  17.3,   0.0,  0.00, 
 09/09/14, 23:00,  11.8, -9999,  16.9,  17.3,  17.3,   0.0,  0.00, 
 09/09/15, 00:00,  11.7, -9999,  16.7,  17.2,  17.3,   0.0,  0.00, 
 09/09/15, 01:00,  12.3, -9999,  16.5,  17.2,  17.3,   0.0,  0.00, 
 09/09/15, 02:00,  12.1, -9999,  16.4,  17.1,  17.3,   0.0,  0.00, 
 09/09/15, 03:00,  12.3, -9999,  16.3,  17.1,  17.3,   0.0,  0.00, 
 09/09/15, 04:00,  12.0, -9999,  16.2,  17.0,  17.4,   0.0,  0.00, 
 09/09/15, 05:00,  11.6, -9999,  16.1,  17.0,  17.4,   0.0,  0.00, 
 09/09/15, 06:00,  11.0, -9999,  15.9,  16.9,  17.4,   0.5,  0.00, 
 09/09/15, 07:00,  11.1, -9999,  15.8,  16.9,  17.4,   0.0,  0.00, 
 09/09/15, 08:00,  11.8, -9999,  15.8,  16.8,  17.4,   0.0,  0.12, 
 09/09/15, 09:00,  12.6, -9999,  15.7,  16.8,  17.4,   0.0,  0.42, 
 09/09/15, 10:00,  12.4, -9999,  15.8,  16.7,  17.4,   0.0,  0.32, 
 09/09/15, 11:00,  12.3, -9999,  15.9,  16.7,  17.4,   0.0,  0.27, 
 09/09/15, 12:00,  13.3, -9999,  16.0,  16.6,  17.4,   0.0,  0.75, 
 09/09/15, 13:00,  13.4, -9999,  16.1,  16.6,  17.4,   0.0,  0.33, 
 09/09/15, 14:00,  12.8, -9999,  16.2,  16.6,  17.4,   0.0,  0.34, 